Regional Weather Roundup
Issued by NWS

Home | Current Version | Previous Version | Graphics & Text | Print | Product List | Glossary On
Versions: 1 2 3 4 5 6 7 8 9 10 11 12 13 14 15 16 17 18 19 20 21 22 23 24 25 26 27 28 29 30 31 32 33 34 35 36 37 38 39 40 41 42 43 44 45 46 47 48 49 50
000
ASUS43 KOAX 232310
RWRNE

WEATHER ROUNDUP FOR NEBRASKA
NATIONAL WEATHER SERVICE OMAHA NE
600 PM CDT SUN JUL 23 2017

NOTES: SATELLITE DATA IS BEING USED TO AUGMENT CLOUD COVER ABOVE
       12000 FEET.
       "FAIR" INDICATES FEW OR NO CLOUDS BELOW 12,000 FEET WITH NO
       SIGNIFICANT WEATHER AND/OR OBSTRUCTIONS TO VISIBILITY.


NEZ001>004-019>022-054>056-240000-
NEBRASKA PANHANDLE

CITY           SKY/WX    TMP DP  RH WIND       PRES   REMARKS
SCOTTSBLUFF    SUNNY     96  49  20 E13       30.01F HX  93
ALLIANCE       SUNNY     95  38  13 CALM      30.02F HX  90
CHADRON        SUNNY     95  50  21 SE13      29.96F HX  92
GORDON         FAIR      91  54  28 E10       30.01F
KIMBALL        SUNNY     92  47  21 E8G21     30.10F
SIDNEY         SUNNY     94  38  14 SE10      30.08F
$$

NEZ057>060-069>072-079>082-240000-
SOUTHWEST NEBRASKA

CITY           SKY/WX    TMP DP  RH WIND       PRES   REMARKS
NORTH PLATTE   SUNNY     96  50  20 CALM      29.99F HX  93
IMPERIAL       SUNNY     96  42  15 SW7       30.02F HX  92
LEXINGTON      SUNNY     87  66  49 E9        30.00F
MCCOOK         SUNNY     95  51  22 E9        29.99F HX  92
OGALLALA       SUNNY     96  42  15 S6        30.02S HX  91
$$

NEZ005>010-023>029-035>040-094-240000-
NORTH CENTRAL NEBRASKA

CITY           SKY/WX    TMP DP  RH WIND       PRES   REMARKS
VALENTINE      SUNNY     95  44  17 E9        30.00F HX  91
AINSWORTH      SUNNY     88  53  29 E3        30.02F
BROKEN BOW     SUNNY     90  57  32 E7        30.00F
O`NEILL          N/A     84  58  42 NE3       30.01F
ORD            SUNNY     89  54  30 NE5       29.99F
THEDFORD       SUNNY     93  52  24 E13       30.02S HX  90
$$

NEZ041-046>049-061>064-073>077-083>087-240000-
SOUTH CENTRAL NEBRASKA

CITY           SKY/WX    TMP DP  RH WIND       PRES   REMARKS
GRAND ISLAND   FAIR      88  61  40 E12       29.99F
AURORA         FAIR      84  67  56 NE6       29.98F
HASTINGS       FAIR      86  67  52 NE9       29.99F
HEBRON         FAIR      90  70  51 N7        29.94F HX  95
HOLDREGE       FAIR      86  64  48 NE6       30.00F
KEARNEY        FAIR      86  66  51 E10       30.00F
YORK           FAIR      84  66  54 NE9       29.98S
$$

NEZ011>018-030>034-042>045-240000-
NORTHEAST NEBRASKA

CITY           SKY/WX    TMP DP  RH WIND       PRES   REMARKS
NORFOLK        FAIR      85  54  34 N9        29.98F
ALBION         FAIR      86  60  41 E7        30.00S
BLAIR          FAIR      85  60  41 NW8       29.96S
COLUMBUS       FAIR      86  63  45 N8        29.98S
FREMONT        FAIR      85  58  39 N6        29.97S
TEKAMAH        FAIR      85  59  41 N10       29.95S
WAYNE          FAIR      85  58  40 N10       29.98S
$$

NEZ050>053-065>068-078-088>093-240000-
SOUTHEAST NEBRASKA

CITY           SKY/WX    TMP DP  RH WIND       PRES   REMARKS
LINCOLN        FAIR      87  65  47 NE12      29.95F
OMAHA EPPLEY   FAIR      88  58  36 N14       29.93F
BEATRICE       FAIR      90  69  49 NE10      29.93F HX  94
FALLS CITY     FAIR      88  72  58 N9        29.90S HX  94
NEBRASKA CITY  FAIR      86  71  60 N7        29.93S HX  91
PLATTSMOUTH    FAIR      85  61  44 N6        29.94S
$$

NEZ044-045-051>053-067-240000-
OMAHA AREA

CITY           SKY/WX    TMP DP  RH WIND       PRES   REMARKS
OMAHA EPPLEY   FAIR      88  58  36 N14       29.93F
BLAIR          FAIR      85  60  41 NW8       29.96S
FREMONT        FAIR      85  58  39 N6        29.97S
MILLARD        FAIR      89  62  40 N7        29.94S
OFFUTT AFB     FAIR      87  60  40 N12       29.93F
PLATTSMOUTH    FAIR      85  61  44 N6        29.94S
WAHOO          FAIR      84  61  45 N9        29.96S
$$




USA.gov is the U.S. government's official web portal to all federal, state and local government web resources and services.